Location: Ostrava
(49.8330°N, 18.2830°E)
Time: 16:53:02
(UTC+02:00)

Iridium 7 - Visible Passes

Search period start: 27 August 2014 00:00
Search period end: 06 September 2014 00:00
Orbit: 776 x 779 km, 86.4° (Epoch: 26 August)

Date Brightness Start Highest point End Pass type
(mag) Time Alt. Az. Time Alt. Az. Time Alt. Az.
27 Aug 7.4 03:24:14 10° SE 03:28:35 27° E 03:32:56 10° NNE visible
27 Aug 5.9 05:04:05 10° SSW 05:09:04 46° W 05:14:06 10° N visible
28 Aug 8.1 02:52:10 10° ESE 02:55:23 17° ENE 02:58:35 10° NE visible
28 Aug 5.5 04:30:14 10° S 04:35:26 77° W 04:40:41 10° N visible
29 Aug 5.9 03:56:48 10° S 04:01:56 63° E 04:07:05 10° N visible
30 Aug 6.9 03:23:48 10° SSE 03:28:32 37° E 03:33:18 10° NNE visible
30 Aug 6.3 05:04:36 10° SW 05:09:18 34° WNW 05:14:02 10° NNW visible
31 Aug 7.6 02:51:18 10° SE 02:55:16 23° ENE 02:59:15 10° NNE visible
31 Aug 5.6 04:31:09 14° SSW 04:35:35 56° W 04:40:44 10° N visible
01 Sep 8.1 02:19:39 10° ESE 02:22:07 14° ENE 02:24:35 10° NE visible
01 Sep 5.5 03:58:12 19° S 04:02:00 86° E 04:07:15 10° N visible
02 Sep 6.2 03:25:13 21° SSE 03:28:32 51° E 03:33:35 10° NNE visible
02 Sep 6.7 05:05:43 12° SW 05:09:34 25° WNW 05:13:51 10° NNW visible
03 Sep 7.1 02:52:12 18° SE 02:55:12 30° E 02:59:43 10° NNE visible
03 Sep 6.0 04:32:42 21° SW 04:35:47 41° WNW 04:40:43 10° N visible
04 Sep 7.8 02:19:11 13° ESE 02:21:59 19° ENE 02:25:29 10° NE visible
04 Sep 5.5 03:59:40 32° SSW 04:02:07 70° W 04:07:21 10° N visible
05 Sep 8.2 01:47:39 10° E 01:48:52 11° ENE 01:50:06 10° ENE visible
05 Sep 5.7 03:26:37 38° SSE 03:28:35 71° E 03:33:48 10° N visible
05 Sep 7.0 05:07:07 13° WSW 05:09:54 19° WNW 05:13:32 10° NNW visible
